Time,TemperatureF,DewpointF,PressureIn,WindDirection,WindDirectionDegrees,WindSpeedMPH,WindSpeedGustMPH,Humidity,HourlyPrecipIn,Conditions,Clouds,dailyrainin,SoftwareType,DateUTC
2013-06-13 00:00:00,62.2,58.9,29.97,SW,232,1.0,6.0,89,0.00,,---,0.00,VWS V14.00,2013-06-13 07:00:00,
2013-06-13 00:01:00,62.1,58.5,29.97,SW,234,3.0,6.0,88,0.00,,---,0.00,VWS V14.00,2013-06-13 07:01:00,
2013-06-13 00:03:00,62.1,58.5,29.97,SW,234,0.0,5.0,88,0.00,,---,0.00,VWS V14.00,2013-06-13 07:03:00,
2013-06-13 00:04:00,62.1,58.5,29.97,WSW,245,0.0,5.0,88,0.00,,---,0.00,VWS V14.00,2013-06-13 07:04:00,
2013-06-13 00:07:00,62.1,58.5,29.97,WSW,245,0.0,5.0,88,0.00,,---,0.00,VWS V14.00,2013-06-13 07:07:00,
2013-06-13 00:08:00,62.1,58.5,29.97,WSW,247,2.0,5.0,88,0.00,,---,0.00,VWS V14.00,2013-06-13 07:08:00,
2013-06-13 00:09:00,62.1,58.5,29.97,WSW,247,1.0,5.0,88,0.00,,---,0.00,VWS V14.00,2013-06-13 07:09:00,
2013-06-13 00:12:00,62.1,58.5,29.97,West,260,1.0,5.0,88,0.00,,---,0.00,VWS V14.00,2013-06-13 07:12:00,
2013-06-13 00:13:00,62.1,58.5,29.97,West,260,1.0,5.0,88,0.00,,---,0.00,VWS V14.00,2013-06-13 07:13:00,
2013-06-13 00:15:00,62.1,58.5,29.97,WSW,252,0.0,5.0,88,0.00,,---,0.00,VWS V14.00,2013-06-13 07:15:00,
2013-06-13 00:17:00,62.1,58.5,29.97,West,272,2.0,5.0,88,0.00,,---,0.00,VWS V14.00,2013-06-13 07:17:00,
2013-06-13 00:18:00,62.1,58.5,29.97,West,272,3.0,5.0,88,0.00,,---,0.00,VWS V14.00,2013-06-13 07:18:00,
2013-06-13 00:19:00,62.1,58.5,29.97,West,267,3.0,5.0,88,0.00,,---,0.00,VWS V14.00,2013-06-13 07:19:00,
2013-06-13 00:20:00,62.1,58.5,29.97,WSW,258,0.0,5.0,88,0.00,,---,0.00,VWS V14.00,2013-06-13 07:20:00,
2013-06-13 00:21:00,62.0,58.4,29.97,WSW,258,0.0,5.0,88,0.00,,---,0.00,VWS V14.00,2013-06-13 07:21:00,
2013-06-13 00:22:00,62.0,58.4,29.97,WSW,258,1.0,5.0,88,0.00,,---,0.00,VWS V14.00,2013-06-13 07:22:00,
2013-06-13 00:23:00,62.0,58.4,29.97,SW,223,1.0,5.0,88,0.00,,---,0.00,VWS V14.00,2013-06-13 07:23:00,
2013-06-13 00:24:00,62.0,58.4,29.97,SW,220,1.0,5.0,88,0.00,,---,0.00,VWS V14.00,2013-06-13 07:24:00,
2013-06-13 00:27:00,62.0,58.4,29.97,SSW,193,1.0,5.0,88,0.00,,---,0.00,VWS V14.00,2013-06-13 07:27:00,
2013-06-13 00:28:00,62.0,58.4,29.97,SSW,206,1.0,5.0,88,0.00,,---,0.00,VWS V14.00,2013-06-13 07:28:00,
2013-06-13 00:29:00,62.0,58.4,29.97,SSW,206,1.0,5.0,88,0.00,,---,0.00,VWS V14.00,2013-06-13 07:29:00,
2013-06-13 00:30:00,62.0,58.4,29.97,SSW,206,0.0,5.0,88,0.00,,---,0.00,VWS V14.00,2013-06-13 07:30:00,
2013-06-13 00:32:00,62.1,58.5,29.97,SW,219,2.0,3.0,88,0.00,,---,0.00,VWS V14.00,2013-06-13 07:32:00,
2013-06-13 00:35:00,62.0,58.4,29.97,WSW,238,0.0,3.0,88,0.00,,---,0.00,VWS V14.00,2013-06-13 07:35:00,
2013-06-13 00:36:00,62.0,58.4,29.97,SSW,207,0.0,3.0,88,0.00,,---,0.00,VWS V14.00,2013-06-13 07:36:00,
2013-06-13 00:37:00,62.0,58.4,29.97,WSW,240,2.0,3.0,88,0.00,,---,0.00,VWS V14.00,2013-06-13 07:37:00,
2013-06-13 00:40:00,62.0,58.4,29.97,WSW,244,1.0,3.0,88,0.00,,---,0.00,VWS V14.00,2013-06-13 07:40:00,
2013-06-13 00:41:00,62.0,58.4,29.97,WSW,244,0.0,3.0,88,0.00,,---,0.00,VWS V14.00,2013-06-13 07:41:00,
2013-06-13 00:42:00,62.0,58.4,29.97,WSW,245,2.0,3.0,88,0.00,,---,0.00,VWS V14.00,2013-06-13 07:42:00,
2013-06-13 00:45:00,62.0,58.4,29.96,SSW,209,2.0,3.0,88,0.00,,---,0.00,VWS V14.00,2013-06-13 07:45:00,
2013-06-13 00:46:00,62.0,58.4,29.96,SSW,209,1.0,3.0,88,0.00,,---,0.00,VWS V14.00,2013-06-13 07:46:00,
2013-06-13 00:47:00,62.0,58.4,29.96,SSW,209,1.0,3.0,88,0.00,,---,0.00,VWS V14.00,2013-06-13 07:47:00,
2013-06-13 00:49:00,62.0,58.4,29.96,SSW,209,0.0,3.0,88,0.00,,---,0.00,VWS V14.00,2013-06-13 07:49:00,
2013-06-13 00:51:00,62.0,58.4,29.96,SSW,209,0.0,3.0,88,0.00,,---,0.00,VWS V14.00,2013-06-13 07:51:00,
2013-06-13 00:53:00,62.0,58.4,29.96,SSW,209,0.0,3.0,88,0.00,,---,0.00,VWS V14.00,2013-06-13 07:53:00,
2013-06-13 00:55:00,62.0,58.4,29.96,WSW,241,2.0,3.0,88,0.00,,---,0.00,VWS V14.00,2013-06-13 07:55:00,
2013-06-13 00:56:00,62.1,58.5,29.96,WSW,241,2.0,3.0,88,0.00,,---,0.00,VWS V14.00,2013-06-13 07:56:00,
2013-06-13 00:57:00,62.0,58.4,29.96,WSW,241,2.0,3.0,88,0.00,,---,0.00,VWS V14.00,2013-06-13 07:57:00,
2013-06-13 01:00:00,62.0,58.4,29.96,WSW,241,0.0,3.0,88,0.00,,---,0.00,VWS V14.00,2013-06-13 08:00:00,
2013-06-13 01:01:00,62.0,58.4,29.96,WSW,242,2.0,3.0,88,0.00,,---,0.00,VWS V14.00,2013-06-13 08:01:00,
2013-06-13 01:03:00,62.1,58.5,29.96,WSW,244,0.0,2.0,88,0.00,,---,0.00,VWS V14.00,2013-06-13 08:03:00,
2013-06-13 01:04:00,62.1,58.5,29.96,WSW,244,0.0,2.0,88,0.00,,---,0.00,VWS V14.00,2013-06-13 08:04:00,
2013-06-13 01:08:00,62.1,58.5,29.96,South,186,0.0,3.0,88,0.00,,---,0.00,VWS V14.00,2013-06-13 08:08:00,
2013-06-13 01:10:00,62.0,58.4,29.96,South,186,1.0,3.0,88,0.00,,---,0.00,VWS V14.00,2013-06-13 08:10:00,
2013-06-13 01:13:00,62.0,58.4,29.96,South,186,0.0,3.0,88,0.00,,---,0.00,VWS V14.00,2013-06-13 08:13:00,
2013-06-13 01:15:00,62.0,58.4,29.95,South,186,0.0,3.0,88,0.00,,---,0.00,VWS V14.00,2013-06-13 08:15:00,
2013-06-13 01:16:00,62.0,58.4,29.95,South,186,0.0,3.0,88,0.00,,---,0.00,VWS V14.00,2013-06-13 08:16:00,
2013-06-13 01:18:00,62.0,58.4,29.95,South,186,0.0,3.0,88,0.00,,---,0.00,VWS V14.00,2013-06-13 08:18:00,
2013-06-13 01:19:00,62.0,58.4,29.95,South,186,0.0,3.0,88,0.00,,---,0.00,VWS V14.00,2013-06-13 08:19:00,
2013-06-13 01:20:00,62.0,58.4,29.95,South,186,0.0,3.0,88,0.00,,---,0.00,VWS V14.00,2013-06-13 08:20:00,
2013-06-13 01:22:00,62.0,58.4,29.95,South,186,1.0,3.0,88,0.00,,---,0.00,VWS V14.00,2013-06-13 08:22:00,
2013-06-13 01:24:00,62.0,58.4,29.95,South,186,0.0,3.0,88,0.00,,---,0.00,VWS V14.00,2013-06-13 08:24:00,
2013-06-13 01:25:00,62.1,58.5,29.95,South,186,1.0,3.0,88,0.00,,---,0.00,VWS V14.00,2013-06-13 08:25:00,
2013-06-13 01:27:00,62.1,58.5,29.95,South,186,0.0,3.0,88,0.00,,---,0.00,VWS V14.00,2013-06-13 08:27:00,
2013-06-13 01:29:00,62.1,58.5,29.95,South,186,1.0,3.0,88,0.00,,---,0.00,VWS V14.00,2013-06-13 08:29:00,
2013-06-13 01:30:00,62.1,58.5,29.95,South,186,1.0,3.0,88,0.00,,---,0.00,VWS V14.00,2013-06-13 08:30:00,
2013-06-13 01:31:00,62.1,58.5,29.95,South,186,0.0,1.0,88,0.00,,---,0.00,VWS V14.00,2013-06-13 08:31:00,
2013-06-13 01:35:00,62.1,58.5,29.95,SSW,203,1.0,2.0,88,0.00,,---,0.00,VWS V14.00,2013-06-13 08:35:00,
2013-06-13 01:37:00,62.1,58.5,29.95,SSW,203,0.0,2.0,88,0.00,,---,0.00,VWS V14.00,2013-06-13 08:37:00,
2013-06-13 01:39:00,62.1,58.5,29.95,SSW,203,0.0,2.0,88,0.00,,---,0.00,VWS V14.00,2013-06-13 08:39:00,
2013-06-13 01:40:00,62.1,58.5,29.95,SSW,203,0.0,2.0,88,0.00,,---,0.00,VWS V14.00,2013-06-13 08:40:00,
2013-06-13 01:43:00,62.1,58.5,29.95,SSW,203,0.0,2.0,88,0.00,,---,0.00,VWS V14.00,2013-06-13 08:43:00,
2013-06-13 01:44:00,62.1,58.5,29.95,SSW,203,2.0,2.0,88,0.00,,---,0.00,VWS V14.00,2013-06-13 08:44:00,
2013-06-13 01:45:00,62.1,58.5,29.95,SSW,203,0.0,2.0,88,0.00,,---,0.00,VWS V14.00,2013-06-13 08:45:00,
2013-06-13 01:48:00,62.2,58.6,29.95,SSW,203,0.0,2.0,88,0.00,,---,0.00,VWS V14.00,2013-06-13 08:48:00,
2013-06-13 01:49:00,62.1,58.5,29.95,SSW,203,0.0,2.0,88,0.00,,---,0.00,VWS V14.00,2013-06-13 08:49:00,
2013-06-13 01:50:00,62.1,58.5,29.95,SSW,203,0.0,2.0,88,0.00,,---,0.00,VWS V14.00,2013-06-13 08:50:00,
2013-06-13 01:52:00,62.1,58.5,29.95,South,176,3.0,3.0,88,0.00,,---,0.00,VWS V14.00,2013-06-13 08:52:00,
2013-06-13 01:54:00,62.2,58.6,29.95,South,176,3.0,4.0,88,0.00,,---,0.00,VWS V14.00,2013-06-13 08:54:00,
2013-06-13 01:55:00,62.2,58.6,29.95,South,175,2.0,4.0,88,0.00,,---,0.00,VWS V14.00,2013-06-13 08:55:00,
2013-06-13 01:56:00,62.1,58.5,29.95,South,170,4.0,4.0,88,0.00,,---,0.00,VWS V14.00,2013-06-13 08:56:00,
2013-06-13 01:57:00,62.1,58.5,29.95,South,170,0.0,4.0,88,0.00,,---,0.00,VWS V14.00,2013-06-13 08:57:00,
2013-06-13 02:00:00,62.1,58.5,29.95,SSE,166,1.0,4.0,88,0.00,,---,0.00,VWS V14.00,2013-06-13 09:00:00,
2013-06-13 02:01:00,62.1,58.5,29.95,SSE,166,0.0,0.0,88,0.00,,---,0.00,VWS V14.00,2013-06-13 09:01:00,
2013-06-13 02:02:00,62.1,58.5,29.95,SSE,166,0.0,0.0,88,0.00,,---,0.00,VWS V14.00,2013-06-13 09:02:00,
2013-06-13 02:03:00,62.1,58.5,29.95,SSE,166,0.0,1.0,88,0.00,,---,0.00,VWS V14.00,2013-06-13 09:03:00,
2013-06-13 02:06:00,62.1,58.5,29.95,SSE,166,0.0,2.0,88,0.00,,---,0.00,VWS V14.00,2013-06-13 09:06:00,
2013-06-13 02:07:00,62.1,58.5,29.95,SSE,166,1.0,2.0,88,0.00,,---,0.00,VWS V14.00,2013-06-13 09:07:00,
2013-06-13 02:08:00,62.1,58.5,29.95,SSE,166,1.0,2.0,88,0.00,,---,0.00,VWS V14.00,2013-06-13 09:08:00,
2013-06-13 02:10:00,62.1,58.5,29.95,SE,127,2.0,2.0,88,0.00,,---,0.00,VWS V14.00,2013-06-13 09:10:00,
2013-06-13 02:11:00,62.1,58.5,29.95,SE,127,1.0,2.0,88,0.00,,---,0.00,VWS V14.00,2013-06-13 09:11:00,
2013-06-13 02:12:00,62.1,58.5,29.95,SE,142,1.0,2.0,88,0.00,,---,0.00,VWS V14.00,2013-06-13 09:12:00,
2013-06-13 02:15:00,62.1,58.5,29.95,East,99,0.0,3.0,88,0.00,,---,0.00,VWS V14.00,2013-06-13 09:15:00,
2013-06-13 02:16:00,62.1,58.5,29.95,East,99,0.0,3.0,88,0.00,,---,0.00,VWS V14.00,2013-06-13 09:16:00,
2013-06-13 02:18:00,62.1,58.5,29.95,SSE,156,1.0,3.0,88,0.00,,---,0.00,VWS V14.00,2013-06-13 09:18:00,
2013-06-13 02:20:00,62.1,58.5,29.95,ESE,121,0.0,3.0,88,0.00,,---,0.00,VWS V14.00,2013-06-13 09:20:00,
2013-06-13 02:22:00,62.2,58.6,29.95,SE,146,0.0,4.0,88,0.00,,---,0.00,VWS V14.00,2013-06-13 09:22:00,
2013-06-13 02:24:00,62.1,58.5,29.95,SE,146,1.0,4.0,88,0.00,,---,0.00,VWS V14.00,2013-06-13 09:24:00,
2013-06-13 02:25:00,62.2,58.6,29.95,SE,146,1.0,4.0,88,0.00,,---,0.00,VWS V14.00,2013-06-13 09:25:00,
2013-06-13 02:27:00,62.1,58.5,29.95,SE,146,0.0,4.0,88,0.00,,---,0.00,VWS V14.00,2013-06-13 09:27:00,
2013-06-13 02:28:00,62.1,58.5,29.95,SE,146,0.0,4.0,88,0.00,,---,0.00,VWS V14.00,2013-06-13 09:28:00,
2013-06-13 02:29:00,62.1,58.2,29.95,SE,146,0.0,4.0,87,0.00,,---,0.00,VWS V14.00,2013-06-13 09:29:00,
2013-06-13 02:30:00,62.1,58.5,29.95,SE,146,0.0,4.0,88,0.00,,---,0.00,VWS V14.00,2013-06-13 09:30:00,
2013-06-13 02:32:00,62.0,58.1,29.95,SE,146,0.0,1.0,87,0.00,,---,0.00,VWS V14.00,2013-06-13 09:32:00,
2013-06-13 02:33:00,62.1,58.5,29.95,SE,146,0.0,1.0,88,0.00,,---,0.00,VWS V14.00,2013-06-13 09:33:00,
2013-06-13 02:34:00,62.0,58.4,29.95,SSE,157,2.0,2.0,88,0.00,,---,0.00,VWS V14.00,2013-06-13 09:34:00,
2013-06-13 02:37:00,62.0,58.4,29.95,SSE,159,0.0,2.0,88,0.00,,---,0.00,VWS V14.00,2013-06-13 09:37:00,
2013-06-13 02:38:00,62.0,58.4,29.95,SW,217,2.0,3.0,88,0.00,,---,0.00,VWS V14.00,2013-06-13 09:38:00,
2013-06-13 02:39:00,62.0,58.4,29.95,SW,225,2.0,3.0,88,0.00,,---,0.00,VWS V14.00,2013-06-13 09:39:00,
2013-06-13 02:41:00,62.0,58.4,29.95,SW,226,0.0,3.0,88,0.00,,---,0.00,VWS V14.00,2013-06-13 09:41:00,
2013-06-13 02:43:00,62.0,58.4,29.95,SW,226,0.0,3.0,88,0.00,,---,0.00,VWS V14.00,2013-06-13 09:43:00,
2013-06-13 02:44:00,62.0,58.4,29.95,SW,226,2.0,3.0,88,0.00,,---,0.00,VWS V14.00,2013-06-13 09:44:00,
2013-06-13 02:45:00,62.0,58.4,29.95,SW,226,1.0,3.0,88,0.00,,---,0.00,VWS V14.00,2013-06-13 09:45:00,
2013-06-13 02:46:00,62.0,58.4,29.95,SW,226,1.0,3.0,88,0.00,,---,0.00,VWS V14.00,2013-06-13 09:46:00,
2013-06-13 02:48:00,62.0,58.4,29.95,SW,226,0.0,3.0,88,0.00,,---,0.00,VWS V14.00,2013-06-13 09:48:00,
2013-06-13 02:49:00,62.0,58.4,29.95,SW,226,2.0,3.0,88,0.00,,---,0.00,VWS V14.00,2013-06-13 09:49:00,
2013-06-13 02:51:00,62.0,58.4,29.95,SW,220,0.0,3.0,88,0.00,,---,0.00,VWS V14.00,2013-06-13 09:51:00,
2013-06-13 02:52:00,62.0,58.4,29.95,SW,219,0.0,3.0,88,0.00,,---,0.00,VWS V14.00,2013-06-13 09:52:00,
2013-06-13 02:53:00,62.0,58.4,29.95,SW,219,0.0,3.0,88,0.00,,---,0.00,VWS V14.00,2013-06-13 09:53:00,
2013-06-13 02:55:00,62.0,58.4,29.95,SW,219,0.0,3.0,88,0.00,,---,0.00,VWS V14.00,2013-06-13 09:55:00,
2013-06-13 02:57:00,62.0,58.4,29.95,SW,219,0.0,3.0,88,0.00,,---,0.00,VWS V14.00,2013-06-13 09:57:00,
2013-06-13 02:58:00,62.0,58.4,29.95,SW,219,1.0,3.0,88,0.00,,---,0.00,VWS V14.00,2013-06-13 09:58:00,
2013-06-13 02:59:00,62.0,58.4,29.95,SW,219,2.0,3.0,88,0.00,,---,0.00,VWS V14.00,2013-06-13 09:59:00,
2013-06-13 03:00:00,62.0,58.4,29.95,SW,219,0.0,3.0,88,0.00,,---,0.00,VWS V14.00,2013-06-13 10:00:00,
2013-06-13 03:02:00,61.9,58.3,29.95,SW,219,0.0,0.0,88,0.00,,---,0.00,VWS V14.00,2013-06-13 10:02:00,
2013-06-13 03:04:00,61.9,58.3,29.95,SW,219,0.0,0.0,88,0.00,,---,0.00,VWS V14.00,2013-06-13 10:04:00,
2013-06-13 03:05:00,61.9,58.3,29.95,SW,219,0.0,0.0,88,0.00,,---,0.00,VWS V14.00,2013-06-13 10:05:00,
2013-06-13 03:06:00,61.9,58.3,29.95,SW,219,0.0,0.0,88,0.00,,---,0.00,VWS V14.00,2013-06-13 10:06:00,
2013-06-13 03:07:00,61.9,58.3,29.95,SW,219,0.0,0.0,88,0.00,,---,0.00,VWS V14.00,2013-06-13 10:07:00,
2013-06-13 03:10:00,61.9,58.3,29.95,SW,220,1.0,2.0,88,0.00,,---,0.00,VWS V14.00,2013-06-13 10:10:00,
2013-06-13 03:11:00,61.9,58.3,29.95,SW,220,0.0,2.0,88,0.00,,---,0.00,VWS V14.00,2013-06-13 10:11:00,
2013-06-13 03:12:00,61.9,58.3,29.95,SW,220,1.0,2.0,88,0.00,,---,0.00,VWS V14.00,2013-06-13 10:12:00,
2013-06-13 03:16:00,61.8,58.2,29.95,SW,220,0.0,2.0,88,0.00,,---,0.00,VWS V14.00,2013-06-13 10:16:00,
2013-06-13 03:17:00,61.8,58.2,29.95,SW,220,1.0,2.0,88,0.00,,---,0.00,VWS V14.00,2013-06-13 10:17:00,
2013-06-13 03:18:00,61.8,58.2,29.95,SW,220,0.0,2.0,88,0.00,,---,0.00,VWS V14.00,2013-06-13 10:18:00,
2013-06-13 03:30:00,61.8,59.0,29.95,SW,220,0.0,2.0,89,0.00,,,0.00,weatherlink.com 1.10,2013-06-13 10:30:00,
2013-06-13 03:45:00,61.8,59.0,29.95,SW,220,0.0,2.0,89,0.00,,,0.00,weatherlink.com 1.10,2013-06-13 10:45:00,
2013-06-13 04:00:00,61.7,59.0,29.95,NNW,331,0.0,1.0,89,0.00,,,0.00,weatherlink.com 1.10,2013-06-13 11:00:00,
2013-06-13 04:15:00,61.8,59.0,29.95,SSW,192,1.0,4.0,89,0.00,,,0.00,weatherlink.com 1.10,2013-06-13 11:15:00,
2013-06-13 04:30:00,61.9,59.0,29.96,South,175,1.0,3.0,89,0.00,,,0.00,weatherlink.com 1.10,2013-06-13 11:30:00,
2013-06-13 04:45:00,61.8,59.0,29.95,SSE,150,0.0,3.0,89,0.00,,,0.00,weatherlink.com 1.10,2013-06-13 11:45:00,
2013-06-13 05:00:00,61.8,58.0,29.95,SSE,158,1.0,4.0,88,0.00,,,0.00,weatherlink.com 1.10,2013-06-13 12:00:00,
2013-06-13 05:15:00,61.6,58.0,29.95,SSW,204,1.0,2.0,89,0.00,,,0.00,weatherlink.com 1.10,2013-06-13 12:15:00,
2013-06-13 05:30:00,61.7,59.0,29.96,SSE,167,0.0,3.0,89,0.00,,,0.00,weatherlink.com 1.10,2013-06-13 12:30:00,
2013-06-13 05:45:00,61.8,59.0,29.96,SSE,167,0.0,2.0,89,0.00,,,0.00,weatherlink.com 1.10,2013-06-13 12:45:00,
2013-06-13 06:00:00,61.7,59.0,29.96,SSE,165,1.0,3.0,89,0.00,,,0.00,weatherlink.com 1.10,2013-06-13 13:00:00,
2013-06-13 06:15:00,61.7,59.0,29.96,SSE,165,0.0,2.0,89,0.00,,,0.00,weatherlink.com 1.10,2013-06-13 13:15:00,
2013-06-13 06:30:00,61.8,59.0,29.96,SSE,165,0.0,2.0,89,0.00,,,0.00,weatherlink.com 1.10,2013-06-13 13:30:00,
2013-06-13 06:45:00,61.9,58.0,29.97,SSW,206,0.0,3.0,88,0.00,,,0.00,weatherlink.com 1.10,2013-06-13 13:45:00,
2013-06-13 07:00:00,61.8,58.0,29.97,South,185,1.0,4.0,87,0.00,,,0.00,weatherlink.com 1.10,2013-06-13 14:00:00,
2013-06-13 07:15:00,62.0,58.0,29.98,South,186,0.0,4.0,87,0.00,,,0.00,weatherlink.com 1.10,2013-06-13 14:15:00,
2013-06-13 07:30:00,62.1,58.0,29.98,South,184,0.0,4.0,87,0.00,,,0.00,weatherlink.com 1.10,2013-06-13 14:30:00,
2013-06-13 07:45:00,62.1,58.0,29.98,SW,217,0.0,3.0,87,0.00,,,0.00,weatherlink.com 1.10,2013-06-13 14:45:00,
2013-06-13 08:00:00,62.1,58.0,29.98,SW,224,3.0,5.0,87,0.00,,,0.00,weatherlink.com 1.10,2013-06-13 15:00:00,
2013-06-13 08:14:00,62.2,58.0,29.98,WSW,257,3.0,5.0,86,0.00,,,0.00,weatherlink.com 1.10,2013-06-13 15:14:00,
2013-06-13 08:30:00,62.2,58.0,29.99,West,259,3.0,5.0,86,0.00,,,0.00,weatherlink.com 1.10,2013-06-13 15:30:00,
2013-06-13 08:45:00,62.3,58.0,29.99,West,276,1.0,4.0,86,0.00,,,0.00,weatherlink.com 1.10,2013-06-13 15:45:00,
2013-06-13 09:00:00,62.3,58.0,29.99,West,259,0.0,5.0,87,0.00,,,0.00,weatherlink.com 1.10,2013-06-13 16:00:00,
2013-06-13 09:30:00,62.7,59.0,30.00,SW,221,3.0,5.0,87,0.00,,,0.00,weatherlink.com 1.10,2013-06-13 16:30:00,
2013-06-13 09:45:00,63.2,59.0,30.00,WSW,254,3.0,6.0,85,0.00,,,0.00,weatherlink.com 1.10,2013-06-13 16:45:00,
2013-06-13 10:00:00,63.4,59.0,30.00,SW,232,2.0,6.0,86,0.00,,,0.00,weatherlink.com 1.10,2013-06-13 17:00:00,
2013-06-13 10:15:00,63.3,59.0,30.00,West,269,5.0,7.0,85,0.00,,,0.00,weatherlink.com 1.10,2013-06-13 17:15:00,
2013-06-13 10:30:00,63.7,59.0,30.00,South,185,3.0,7.0,84,0.00,,,0.00,weatherlink.com 1.10,2013-06-13 17:30:00,
2013-06-13 10:45:00,63.5,59.0,30.00,SW,225,5.0,9.0,84,0.00,,,0.00,weatherlink.com 1.10,2013-06-13 17:45:00,
2013-06-13 11:00:00,65.2,60.0,30.00,West,260,4.0,8.0,82,0.00,,,0.00,weatherlink.com 1.10,2013-06-13 18:00:00,
2013-06-13 11:15:00,64.9,59.0,30.00,WNW,294,7.0,11.0,81,0.00,,,0.00,weatherlink.com 1.10,2013-06-13 18:15:00,
2013-06-13 11:30:00,64.1,58.8,30.00,West,270,6.0,11.0,83,0.00,,---,0.00,VWS V14.00,2013-06-13 18:30:00,
2013-06-13 11:31:00,64.1,59.0,30.00,WNW,285,5.0,10.0,83,0.00,,,0.00,weatherlink.com 1.10,2013-06-13 18:31:00,
2013-06-13 11:46:00,64.7,59.0,30.00,West,269,7.0,10.0,82,0.00,,,0.00,weatherlink.com 1.10,2013-06-13 18:46:00,
2013-06-13 12:00:00,64.7,58.7,30.00,West,270,5.0,10.0,81,0.00,,---,0.00,VWS V14.00,2013-06-13 19:00:00,
2013-06-13 12:01:00,64.7,59.0,30.00,WSW,254,4.0,9.0,81,0.00,,,0.00,weatherlink.com 1.10,2013-06-13 19:01:00,
2013-06-13 12:16:00,64.8,59.0,30.00,WSW,254,11.0,12.0,81,0.00,,,0.00,weatherlink.com 1.10,2013-06-13 19:16:00,
2013-06-13 12:30:00,65.6,59.3,30.00,WSW,248,6.0,12.0,80,0.00,,---,0.00,VWS V14.00,2013-06-13 19:30:00,
2013-06-13 12:31:00,65.6,59.0,30.00,SW,229,2.0,12.0,80,0.00,,,0.00,weatherlink.com 1.10,2013-06-13 19:31:00,
2013-06-13 12:46:00,65.5,59.0,29.99,SSW,202,6.0,11.0,79,0.00,,,0.00,weatherlink.com 1.10,2013-06-13 19:46:00,
2013-06-13 13:00:00,65.7,59.0,29.98,WSW,248,6.0,12.0,79,0.00,,---,0.00,VWS V14.00,2013-06-13 20:00:00,
2013-06-13 13:01:00,65.6,59.0,29.98,SW,233,9.0,11.0,79,0.00,,,0.00,weatherlink.com 1.10,2013-06-13 20:01:00,
2013-06-13 13:16:00,64.9,59.0,29.98,WSW,253,12.0,12.0,80,0.00,,,0.00,weatherlink.com 1.10,2013-06-13 20:16:00,
2013-06-13 13:30:00,64.9,58.9,29.98,West,270,7.0,14.0,81,0.00,,---,0.00,VWS V14.00,2013-06-13 20:30:00,
2013-06-13 13:31:00,64.9,59.0,29.98,WSW,249,4.0,14.0,81,0.00,,,0.00,weatherlink.com 1.10,2013-06-13 20:31:00,
2013-06-13 13:46:00,65.3,59.0,29.97,SW,224,10.0,13.0,80,0.00,,,0.00,weatherlink.com 1.10,2013-06-13 20:46:00,
2013-06-13 14:00:00,65.0,59.0,29.97,WSW,248,8.0,14.0,81,0.00,,---,0.00,VWS V14.00,2013-06-13 21:00:00,
2013-06-13 14:01:00,65.0,59.0,29.97,SW,234,7.0,13.0,81,0.00,,,0.00,weatherlink.com 1.10,2013-06-13 21:01:00,
2013-06-13 14:16:00,65.7,59.0,29.96,WSW,248,6.0,14.0,79,0.00,,,0.00,weatherlink.com 1.10,2013-06-13 21:16:00,
2013-06-13 14:30:00,65.5,58.5,29.96,West,270,7.0,14.0,78,0.00,,---,0.00,VWS V14.00,2013-06-13 21:30:00,
2013-06-13 14:31:00,65.4,58.0,29.96,WNW,294,7.0,14.0,78,0.00,,,0.00,weatherlink.com 1.10,2013-06-13 21:31:00,
2013-06-13 14:46:00,64.7,58.0,29.96,NW,313,5.0,14.0,80,0.00,,,0.00,weatherlink.com 1.10,2013-06-13 21:46:00,
2013-06-13 15:00:00,64.8,58.5,29.95,West,270,8.0,15.0,80,0.00,,---,0.00,VWS V14.00,2013-06-13 22:00:00,
2013-06-13 15:01:00,64.9,59.0,29.95,West,263,8.0,15.0,80,0.00,,,0.00,weatherlink.com 1.10,2013-06-13 22:01:00,
2013-06-13 15:16:00,65.2,58.0,29.95,WSW,246,8.0,13.0,78,0.00,,,0.00,weatherlink.com 1.10,2013-06-13 22:16:00,
2013-06-13 15:30:00,64.7,58.4,29.94,West,270,8.0,14.0,80,0.00,,---,0.00,VWS V14.00,2013-06-13 22:30:00,
2013-06-13 15:31:00,64.7,58.0,29.94,West,273,10.0,14.0,80,0.00,,,0.00,weatherlink.com 1.10,2013-06-13 22:31:00,
2013-06-13 15:46:00,65.8,58.0,29.93,WNW,301,10.0,12.0,77,0.00,,,0.00,weatherlink.com 1.10,2013-06-13 22:46:00,
2013-06-13 16:00:00,65.0,58.3,29.93,West,270,7.0,14.0,79,0.00,,---,0.00,VWS V14.00,2013-06-13 23:00:00,
2013-06-13 16:01:00,65.0,58.0,29.93,WNW,287,4.0,13.0,79,0.00,,,0.00,weatherlink.com 1.10,2013-06-13 23:01:00,
2013-06-13 16:16:00,64.8,58.0,29.92,WSW,258,9.0,13.0,79,0.00,,,0.00,weatherlink.com 1.10,2013-06-13 23:16:00,
2013-06-13 16:30:00,65.2,58.9,29.91,West,270,8.0,14.0,80,0.00,,---,0.00,VWS V14.00,2013-06-13 23:30:00,
2013-06-13 16:31:00,65.2,59.0,29.91,WSW,251,9.0,14.0,80,0.00,,,0.00,weatherlink.com 1.10,2013-06-13 23:31:00,
2013-06-13 16:46:00,64.9,59.0,29.91,West,265,10.0,15.0,80,0.00,,,0.00,weatherlink.com 1.10,2013-06-13 23:46:00,
2013-06-13 17:00:00,64.6,58.7,29.90,WNW,292,9.0,15.0,81,0.00,,---,0.00,VWS V14.00,2013-06-14 00:00:00,
2013-06-13 17:01:00,64.6,59.0,29.90,WSW,249,8.0,14.0,81,0.00,,,0.00,weatherlink.com 1.10,2013-06-14 00:01:00,
2013-06-13 17:16:00,64.5,59.0,29.90,West,277,8.0,15.0,82,0.00,,,0.00,weatherlink.com 1.10,2013-06-14 00:16:00,
2013-06-13 17:30:00,64.5,59.2,29.90,West,270,9.0,15.0,83,0.00,,---,0.00,VWS V14.00,2013-06-14 00:30:00,
2013-06-13 17:31:00,64.5,59.0,29.90,WNW,286,8.0,15.0,83,0.00,,,0.00,weatherlink.com 1.10,2013-06-14 00:31:00,
2013-06-13 17:46:00,65.2,59.0,29.90,WSW,247,6.0,12.0,81,0.00,,,0.00,weatherlink.com 1.10,2013-06-14 00:46:00,
2013-06-13 18:00:00,64.7,59.8,29.89,West,270,7.0,14.0,84,0.00,,---,0.00,VWS V14.00,2013-06-14 01:00:00,
2013-06-13 18:01:00,64.8,60.0,29.89,WNW,283,8.0,14.0,84,0.00,,,0.00,weatherlink.com 1.10,2013-06-14 01:01:00,
2013-06-13 18:16:00,64.8,60.0,29.89,West,281,9.0,15.0,84,0.00,,,0.00,weatherlink.com 1.10,2013-06-14 01:16:00,
2013-06-13 18:30:00,64.7,59.8,29.89,West,270,8.0,15.0,84,0.00,,---,0.00,VWS V14.00,2013-06-14 01:30:00,
2013-06-13 18:31:00,64.7,60.0,29.89,West,271,9.0,13.0,84,0.00,,,0.00,weatherlink.com 1.10,2013-06-14 01:31:00,
2013-06-13 18:46:00,64.5,60.0,29.89,West,271,10.0,12.0,84,0.00,,,0.00,weatherlink.com 1.10,2013-06-14 01:46:00,
2013-06-13 19:00:00,64.4,59.5,29.90,WNW,292,7.0,12.0,84,0.00,,---,0.00,VWS V14.00,2013-06-14 02:00:00,
2013-06-13 19:01:00,64.3,59.0,29.90,WNW,282,7.0,12.0,84,0.00,,,0.00,weatherlink.com 1.10,2013-06-14 02:01:00,
2013-06-13 19:16:00,64.0,60.0,29.90,WNW,297,7.0,12.0,85,0.00,,,0.00,weatherlink.com 1.10,2013-06-14 02:16:00,
2013-06-13 19:30:00,63.5,58.9,29.90,West,270,6.0,12.0,85,0.00,,---,0.00,VWS V14.00,2013-06-14 02:30:00,
2013-06-13 19:31:00,63.5,59.0,29.90,West,276,8.0,11.0,86,0.00,,,0.00,weatherlink.com 1.10,2013-06-14 02:31:00,
2013-06-13 19:46:00,62.7,59.0,29.90,WNW,284,6.0,12.0,87,0.00,,,0.00,weatherlink.com 1.10,2013-06-14 02:46:00,
2013-06-13 20:00:00,62.5,58.9,29.90,WNW,292,6.0,12.0,88,0.00,,---,0.00,VWS V14.00,2013-06-14 03:00:00,
2013-06-13 20:01:00,62.4,59.0,29.90,West,262,7.0,9.0,88,0.00,,,0.00,weatherlink.com 1.10,2013-06-14 03:01:00,
2013-06-13 20:16:00,62.0,59.0,29.90,West,274,8.0,10.0,89,0.00,,,0.00,weatherlink.com 1.10,2013-06-14 03:16:00,
2013-06-13 20:30:00,62.0,58.7,29.90,WNW,292,6.0,10.0,89,0.00,,---,0.00,VWS V14.00,2013-06-14 03:30:00,
2013-06-13 20:31:00,62.0,59.0,29.90,WNW,303,6.0,9.0,89,0.00,,,0.00,weatherlink.com 1.10,2013-06-14 03:31:00,
2013-06-13 20:46:00,61.7,59.0,29.90,WNW,293,5.0,9.0,89,0.00,,,0.00,weatherlink.com 1.10,2013-06-14 03:46:00,
2013-06-13 21:00:00,62.5,58.9,29.90,WNW,292,6.0,12.0,88,0.00,,---,0.00,VWS V14.00,2013-06-14 04:00:00,
2013-06-13 21:01:00,61.6,58.0,29.90,NW,310,4.0,7.0,89,0.00,,,0.00,weatherlink.com 1.10,2013-06-14 04:01:00,
2013-06-13 21:16:00,61.5,59.0,29.91,WNW,287,2.0,7.0,90,0.00,,,0.00,weatherlink.com 1.10,2013-06-14 04:16:00,
2013-06-13 21:30:00,61.4,58.5,29.91,WNW,292,4.0,8.0,90,0.00,,---,0.00,VWS V14.00,2013-06-14 04:30:00,
2013-06-13 21:31:00,61.4,59.0,29.91,WNW,286,3.0,6.0,90,0.00,,,0.00,weatherlink.com 1.10,2013-06-14 04:31:00,
2013-06-13 21:46:00,61.3,59.0,29.92,WNW,290,2.0,6.0,91,0.00,,,0.00,weatherlink.com 1.10,2013-06-14 04:46:00,
2013-06-13 22:00:00,61.1,58.5,29.92,West,270,3.0,6.0,91,0.00,,---,0.00,VWS V14.00,2013-06-14 05:00:00,
2013-06-13 22:01:00,61.1,59.0,29.92,WNW,284,4.0,5.0,91,0.00,,,0.00,weatherlink.com 1.10,2013-06-14 05:01:00,
2013-06-13 22:16:00,61.1,59.0,29.92,West,276,2.0,6.0,91,0.00,,,0.00,weatherlink.com 1.10,2013-06-14 05:16:00,
2013-06-13 22:30:00,61.2,58.6,29.92,West,270,2.0,6.0,91,0.00,,---,0.00,VWS V14.00,2013-06-14 05:30:00,
2013-06-13 22:31:00,61.3,59.0,29.92,West,273,1.0,4.0,91,0.00,,,0.00,weatherlink.com 1.10,2013-06-14 05:31:00,
2013-06-13 22:46:00,61.4,59.0,29.92,West,279,2.0,3.0,91,0.00,,,0.00,weatherlink.com 1.10,2013-06-14 05:46:00,
2013-06-13 23:00:00,61.4,58.5,29.92,WNW,292,1.0,5.0,90,0.00,,---,0.00,VWS V14.00,2013-06-14 06:00:00,
2013-06-13 23:01:00,61.4,59.0,29.92,WSW,251,1.0,2.0,90,0.00,,,0.00,weatherlink.com 1.10,2013-06-14 06:01:00,
2013-06-13 23:16:00,61.4,59.0,29.92,WSW,250,0.0,2.0,90,0.00,,,0.00,weatherlink.com 1.10,2013-06-14 06:16:00,
2013-06-13 23:30:00,61.2,58.6,29.92,West,270,2.0,6.0,91,0.00,,---,0.00,VWS V14.00,2013-06-14 06:30:00,
2013-06-13 23:31:00,61.5,59.0,29.91,West,259,0.0,2.0,90,0.00,,,0.00,weatherlink.com 1.10,2013-06-14 06:31:00,
2013-06-13 23:46:00,61.4,59.0,29.91,SSW,212,0.0,3.0,90,0.00,,,0.00,weatherlink.com 1.10,2013-06-14 06:46:00,